This is the latest recevied weather packets stored in our database for station/object K5GHS-1. If no packets are shown the sender has not sent any weather packets the latest 10 day(s).
| Time | Temp. | Humidity | Pressure | Rain* | Wind** | Luminosity | Snow |
|---|---|---|---|---|---|---|---|
| 1778002304 | 27.78° C | 70% | 1003.3 hPa | 0 mm | - | 342 W/m² | - |
| 1778002001 | 27.22° C | 70% | 1003.3 hPa | 0 mm | - | 332 W/m² | - |
| 1778001698 | 27.22° C | 70% | 1003.2 hPa | 0 mm | - | 353 W/m² | - |
| 1778001392 | 27.22° C | 70% | 1003.2 hPa | 0 mm | - | 301 W/m² | - |
| 1778001090 | 27.22° C | 71% | 1003 hPa | 0 mm | - | 304 W/m² | - |
| 1778000787 | 27.22° C | 70% | 1003.5 hPa | 0 mm | - | 288 W/m² | - |
| 1778000483 | 27.22° C | 71% | 1003.3 hPa | 0 mm | - | 308 W/m² | - |
| 1778000178 | 27.22° C | 71% | 1003.3 hPa | 0 mm | - | 382 W/m² | - |
| 1777999875 | 27.22° C | 70% | 1003.2 hPa | 0 mm | - | 317 W/m² | - |
| 1777999570 | 26.67° C | 72% | 1003.5 hPa | 0 mm | - | 412 W/m² | - |
| 1777999268 | 26.67° C | 72% | 1003.4 hPa | 0 mm | - | 297 W/m² | - |
| 1777998966 | 26.11° C | 73% | 1003.5 hPa | 0 mm | - | 340 W/m² | - |
| 1777998663 | 26.11° C | 73% | 1003.2 hPa | 0 mm | - | 255 W/m² | - |
| 1777998361 | 26.11° C | 73% | 1003.5 hPa | 0 mm | - | 233 W/m² | - |
| 1777998058 | 26.11° C | 73% | 1003.1 hPa | 0 mm | - | 222 W/m² | - |
| 1777997755 | 26.67° C | 72% | 1003.2 hPa | 0 mm | - | 310 W/m² | - |
| 1777997452 | 26.11° C | 73% | 1003.1 hPa | 0 mm | - | 286 W/m² | - |
| 1777997150 | 25.56° C | 74% | 1003 hPa | 0 mm | - | 423 W/m² | - |
| 1777996847 | 26.11° C | 73% | 1002.7 hPa | 0 mm | - | 251 W/m² | - |
| 1777996543 | 26.11° C | 73% | 1003.1 hPa | 0 mm | - | 325 W/m² | - |
| 1777996240 | 26.11° C | 73% | 1002.8 hPa | 0 mm | - | 413 W/m² | - |
| 1777995936 | 26.11° C | 73% | 1002.6 hPa | 0 mm | - | 326 W/m² | - |
| 1777995632 | 26.11° C | 73% | 1002.5 hPa | 0 mm | - | 349 W/m² | - |
| 1777995330 | 26.11° C | 74% | 1002.4 hPa | 0 mm | - | 517 W/m² | - |
| 1777995027 | 25.56° C | 76% | 1002.6 hPa | 0 mm | - | 592 W/m² | - |
* Rain latest hour (hover to see other rain measurements)
** Current wind speed in m/s (hover to see current wind gust speed)